| time (UTC) | temp C | wind direction | speed KPH | gust KPH | rain 1hr cm | rain 24hr cm | rain mn cm | humidity % | barometer mb |
| 20260508021010 | 23 | 322 | 0.0 | 9.7 | 0.00 | 0.00 | 0.00 | 59 | 1019.5 |
| 20260508020010 | 23 | 0 | 0.0 | 11.3 | 0.00 | 0.00 | 0.00 | 58 | 1019.5 |
| 20260508015010 | 23 | 282 | 1.6 | 12.9 | 0.00 | 0.00 | 0.00 | 55 | 1019.5 |
| 20260508014011 | 24 | 20 | 1.6 | 9.7 | 0.00 | 0.00 | 0.00 | 53 | 1019.5 |
| 20260508013010 | 24 | 343 | 1.6 | 11.3 | 0.00 | 0.00 | 0.00 | 50 | 1019.6 |
| 20260508011010 | 25 | 320 | 0.0 | 11.3 | 0.00 | 0.00 | 0.00 | 48 | 1019.4 |
| 20260508010009 | 25 | 0 | 8.0 | 14.5 | 0.00 | 0.00 | 0.00 | 45 | 1019.5 |
| 20260508004010 | 25 | 9 | 4.8 | 11.3 | 0.00 | 0.00 | 0.00 | 42 | 1019.6 |
| 20260508003011 | 25 | 3 | 4.8 | 11.3 | 0.00 | 0.00 | 0.00 | 43 | 1019.7 |
| 20260508002010 | 25 | 19 | 1.6 | 11.3 | 0.00 | 0.00 | 0.00 | 42 | 1019.6 |
| 20260508001009 | 26 | 322 | 3.2 | 16.1 | 0.00 | 0.00 | 0.00 | 42 | 1019.5 |
| 20260507233010 | 26 | 11 | 4.8 | 11.3 | 0.00 | 0.00 | 0.00 | 41 | 1019.7 |
| 20260507232009 | 26 | 332 | 4.8 | 14.5 | 0.00 | 0.00 | 0.00 | 42 | 1019.9 |
| 20260507231010 | 26 | 2 | 9.7 | 20.9 | 0.00 | 0.00 | 0.00 | 42 | 1020.0 |
| 20260507230010 | 26 | 310 | 8.0 | 14.5 | 0.00 | 0.00 | 0.00 | 42 | 1020.1 |
| 20260507225009 | 26 | 25 | 4.8 | 16.1 | 0.00 | 0.00 | 0.00 | 42 | 1020.1 |
| 20260507224010 | 26 | 1 | 1.6 | 12.9 | 0.00 | 0.00 | 0.00 | 44 | 1020.3 |
| 20260507223010 | 26 | 282 | 0.0 | 12.9 | 0.00 | 0.00 | 0.00 | 43 | 1020.3 |
| 20260507222010 | 26 | 337 | 3.2 | 16.1 | 0.00 | 0.00 | 0.00 | 43 | 1020.4 |
| 20260507221010 | 26 | 3 | 0.0 | 12.9 | 0.00 | 0.00 | 0.00 | 45 | 1020.5 |
| 20260507220010 | 25 | 349 | 3.2 | 16.1 | 0.00 | 0.00 | 0.00 | 46 | 1020.5 |
| 20260507215009 | 25 | 285 | 4.8 | 19.3 | 0.00 | 0.00 | 0.00 | 47 | 1020.6 |
| 20260507213010 | 25 | 281 | 0.0 | 12.9 | 0.00 | 0.00 | 0.00 | 46 | 1020.6 |
| 20260507212009 | 25 | 326 | 1.6 | 11.3 | 0.00 | 0.00 | 0.00 | 46 | 1020.8 |
| 20260507211010 | 25 | 352 | 8.0 | 19.3 | 0.00 | 0.00 | 0.00 | 44 | 1021.0 |
| 20260507205010 | 25 | 353 | 3.2 | 11.3 | 0.00 | 0.00 | 0.00 | 47 | 1021.0 |
| 20260507204010 | 24 | 352 | 3.2 | 11.3 | 0.00 | 0.00 | 0.00 | 50 | 1021.1 |
| 20260507203009 | 24 | 355 | 8.0 | 14.5 | 0.00 | 0.00 | 0.00 | 51 | 1021.0 |
| 20260507202009 | 24 | 5 | 6.4 | 14.5 | 0.00 | 0.00 | 0.00 | 51 | 1021.2 |
| 20260507201009 | 24 | 355 | 9.7 | 19.3 | 0.00 | 0.00 | 0.00 | 51 | 1021.3 |
| 20260507200011 | 24 | 288 | 1.6 | 14.5 | 0.00 | 0.00 | 0.00 | 52 | 1021.2 |
| 20260507195009 | 23 | 14 | 3.2 | 20.9 | 0.00 | 0.00 | 0.00 | 55 | 1021.2 |
| 20260507194009 | 24 | 242 | 1.6 | 16.1 | 0.00 | 0.00 | 0.00 | 54 | 1021.2 |
| 20260507193009 | 23 | 286 | 3.2 | 14.5 | 0.00 | 0.00 | 0.00 | 56 | 1021.3 |
| 20260507191009 | 23 | 331 | 8.0 | 16.1 | 0.00 | 0.00 | 0.00 | 57 | 1021.4 |
| 20260507190010 | 23 | 357 | 4.8 | 12.9 | 0.00 | 0.00 | 0.00 | 59 | 1021.5 |
| 20260507185009 | 22 | 335 | 3.2 | 12.9 | 0.00 | 0.00 | 0.00 | 59 | 1021.5 |
| 20260507184009 | 22 | 270 | 1.6 | 16.1 | 0.00 | 0.00 | 0.00 | 60 | 1021.7 |
| 20260507183009 | 22 | 0 | 1.6 | 14.5 | 0.00 | 0.00 | 0.00 | 60 | 1021.8 |
| 20260507182010 | 23 | 0 | 1.6 | 11.3 | 0.00 | 0.00 | 0.00 | 60 | 1021.7 |
| 20260507181009 | 22 | 6 | 4.8 | 12.9 | 0.00 | 0.00 | 0.00 | 59 | 1021.7 |
| 20260507174010 | 21 | 345 | 3.2 | 11.3 | 0.00 | 0.00 | 0.00 | 62 | 1021.6 |
| 20260507173010 | 21 | 0 | 1.6 | 11.3 | 0.00 | 0.00 | 0.00 | 64 | 1021.6 |
| 20260507171009 | 21 | 341 | 1.6 | 9.7 | 0.00 | 0.00 | 0.00 | 65 | 1021.7 |
| 20260507170009 | 20 | 349 | 0.0 | 11.3 | 0.00 | 0.00 | 0.00 | 67 | 1021.7 |
| 20260507165009 | 20 | 356 | 6.4 | 14.5 | 0.00 | 0.00 | 0.00 | 69 | 1021.7 |
| 20260507164009 | 19 | 0 | 4.8 | 14.5 | 0.00 | 0.00 | 0.00 | 68 | 1021.7 |
| 20260507163009 | 20 | 358 | 8.0 | 14.5 | 0.00 | 0.00 | 0.00 | 66 | 1021.7 |
| 20260507162009 | 19 | 352 | 3.2 | 9.7 | 0.00 | 0.00 | 0.00 | 64 | 1021.7 |
| 20260507161009 | 19 | 157 | 0.0 | 0.0 | 0.00 | 0.00 | 0.00 | 67 | 1021.6 |
| 20260507160009 | 18 | 157 | 0.0 | 9.7 | 0.00 | 0.00 | 0.00 | 68 | 1021.7 |
| 20260507153009 | 17 | 89 | 0.0 | 0.0 | 0.00 | 0.00 | 0.00 | 82 | 1021.7 |
| 20260507152009 | 16 | 89 | 0.0 | 8.0 | 0.00 | 0.00 | 0.00 | 92 | 1021.6 |
| 20260507151009 | 15 | 99 | 0.0 | 9.7 | 0.00 | 0.00 | 0.00 | 100 | 1021.6 |
| 20260507150009 | 13 | 95 | 1.6 | 9.7 | 0.00 | 0.00 | 0.00 | 100 | 1021.7 |
| 20260507145010 | 12 | 101 | 1.6 | 8.0 | 0.00 | 0.00 | 0.00 | 100 | 1021.7 |
| 20260507144011 | 12 | 119 | 1.6 | 9.7 | 0.00 | 0.00 | 0.00 | 100 | 1021.6 |
| 20260507143010 | 12 | 121 | 0.0 | 0.0 | 0.00 | 0.00 | 0.00 | 100 | 1021.6 |
| 20260507141010 | 11 | 121 | 0.0 | 0.0 | 0.00 | 0.00 | 0.00 | 100 | 1021.4 |
| 20260507140009 | 11 | 121 | 0.0 | 0.0 | 0.00 | 0.00 | 0.00 | 100 | 1021.3 |
| 20260507135010 | 11 | 121 | 0.0 | 0.0 | 0.00 | 0.00 | 0.00 | 100 | 1021.2 |
| 20260507134010 | 11 | 121 | 0.0 | 0.0 | 0.00 | 0.00 | 0.00 | 100 | 1021.1 |
| 20260507133010 | 11 | 121 | 0.0 | 0.0 | 0.00 | 0.00 | 0.00 | 100 | 1021.0 |
| 20260507132010 | 10 | 121 | 0.0 | 0.0 | 0.00 | 0.00 | 0.00 | 100 | 1021.0 |
| 20260507131010 | 10 | 121 | 0.0 | 0.0 | 0.00 | 0.00 | 0.00 | 100 | 1021.0 |
| 20260507130010 | 11 | 121 | 0.0 | 0.0 | 0.00 | 0.00 | 0.00 | 100 | 1020.8 |
| 20260507125011 | 11 | 121 | 0.0 | 0.0 | 0.00 | 0.00 | 0.00 | 100 | 1020.8 |
| 20260507124013 | 11 | 121 | 0.0 | 0.0 | 0.00 | 0.00 | 0.00 | 100 | 1020.7 |
| 20260507123010 | 11 | 121 | 0.0 | 0.0 | 0.00 | 0.00 | 0.00 | 100 | 1020.8 |
| 20260507122009 | 11 | 121 | 0.0 | 0.0 | 0.00 | 0.00 | 0.00 | 100 | 1020.7 |
| 20260507121009 | 11 | 121 | 0.0 | 0.0 | 0.00 | 0.00 | 0.00 | 100 | 1020.8 |
| 20260507120009 | 11 | 121 | 0.0 | 4.8 | 0.00 | 0.00 | 0.00 | 100 | 1020.8 |
| 20260507114010 | 11 | 65 | 0.0 | 0.0 | 0.00 | 0.00 | 0.00 | 100 | 1020.8 |
| 20260507113010 | 11 | 65 | 0.0 | 0.0 | 0.00 | 0.00 | 0.00 | 100 | 1021.0 |
| 20260507112010 | 11 | 65 | 0.0 | 0.0 | 0.00 | 0.00 | 0.00 | 100 | 1021.0 |
| 20260507111010 | 11 | 65 | 0.0 | 0.0 | 0.00 | 0.00 | 0.00 | 100 | 1021.0 |
| 20260507110009 | 11 | 65 | 0.0 | 0.0 | 0.00 | 0.00 | 0.00 | 100 | 1021.0 |
| 20260507105010 | 11 | 65 | 0.0 | 0.0 | 0.00 | 0.00 | 0.00 | 100 | 1021.0 |
| 20260507104010 | 11 | 65 | 0.0 | 0.0 | 0.00 | 0.00 | 0.00 | 100 | 1021.0 |
| 20260507103010 | 11 | 65 | 0.0 | 0.0 | 0.00 | 0.00 | 0.00 | 100 | 1021.0 |
| 20260507101010 | 11 | 65 | 0.0 | 0.0 | 0.00 | 0.00 | 0.00 | 100 | 1021.1 |
| 20260507100010 | 11 | 65 | 0.0 | 0.0 | 0.00 | 0.00 | 0.00 | 100 | 1021.0 |
| 20260507095009 | 11 | 65 | 0.0 | 0.0 | 0.00 | 0.00 | 0.00 | 100 | 1021.1 |
| 20260507094010 | 11 | 65 | 0.0 | 3.2 | 0.00 | 0.00 | 0.00 | 100 | 1021.2 |
| 20260507093010 | 11 | 131 | 0.0 | 0.0 | 0.00 | 0.00 | 0.00 | 100 | 1021.2 |
| 20260507092010 | 11 | 131 | 0.0 | 0.0 | 0.00 | 0.00 | 0.00 | 100 | 1021.4 |
| 20260507091009 | 11 | 131 | 0.0 | 0.0 | 0.00 | 0.00 | 0.00 | 100 | 1021.4 |
| 20260507090009 | 11 | 131 | 0.0 | 0.0 | 0.00 | 0.00 | 0.00 | 100 | 1021.4 |
| 20260507085009 | 11 | 131 | 0.0 | 0.0 | 0.00 | 0.00 | 0.00 | 100 | 1021.4 |
| 20260507084009 | 11 | 131 | 0.0 | 0.0 | 0.00 | 0.00 | 0.00 | 100 | 1021.5 |
| 20260507081009 | 11 | 131 | 0.0 | 0.0 | 0.00 | 0.00 | 0.00 | 100 | 1021.5 |
| 20260507080010 | 11 | 131 | 0.0 | 0.0 | 0.00 | 0.00 | 0.00 | 100 | 1021.6 |
| 20260507075009 | 11 | 131 | 0.0 | 0.0 | 0.00 | 0.00 | 0.00 | 100 | 1021.6 |
| 20260507074010 | 11 | 131 | 0.0 | 0.0 | 0.00 | 0.00 | 0.00 | 100 | 1021.6 |
| 20260507073010 | 11 | 131 | 0.0 | 0.0 | 0.00 | 0.00 | 0.00 | 100 | 1021.6 |
| 20260507071010 | 11 | 17 | 0.0 | 0.0 | 0.00 | 0.00 | 0.00 | 100 | 1021.7 |
| 20260507070012 | 11 | 17 | 0.0 | 0.0 | 0.00 | 0.00 | 0.00 | 100 | 1021.7 |
| 20260507065010 | 11 | 17 | 0.0 | 0.0 | 0.00 | 0.00 | 0.00 | 100 | 1021.8 |
| 20260507064010 | 11 | 17 | 0.0 | 0.0 | 0.00 | 0.00 | 0.00 | 100 | 1021.8 |
| 20260507063009 | 11 | 17 | 0.0 | 0.0 | 0.00 | 0.00 | 0.00 | 100 | 1021.8 |
| 20260507062009 | 12 | 17 | 0.0 | 3.2 | 0.00 | 0.00 | 0.00 | 100 | 1021.8 |
| 20260507060009 | 12 | 17 | 0.0 | 0.0 | 0.00 | 0.00 | 0.00 | 100 | 1021.9 |
| 20260507055009 | 12 | 17 | 0.0 | 0.0 | 0.00 | 0.00 | 0.00 | 99 | 1021.8 |
| 20260507054009 | 12 | 17 | 0.0 | 0.0 | 0.00 | 0.00 | 0.00 | 98 | 1021.8 |
| 20260507052009 | 12 | 17 | 0.0 | 0.0 | 0.00 | 0.00 | 0.00 | 96 | 1021.9 |
| 20260507051009 | 13 | 17 | 0.0 | 0.0 | 0.00 | 0.00 | 0.00 | 95 | 1022.1 |
| 20260507050010 | 13 | 17 | 0.0 | 0.0 | 0.00 | 0.00 | 0.00 | 94 | 1022.1 |
| 20260507044009 | 13 | 17 | 0.0 | 0.0 | 0.00 | 0.00 | 0.00 | 92 | 1022.1 |
| 20260507043010 | 13 | 17 | 0.0 | 0.0 | 0.00 | 0.00 | 0.00 | 91 | 1021.9 |
| 20260507042010 | 14 | 17 | 0.0 | 0.0 | 0.00 | 0.00 | 0.00 | 90 | 1021.9 |
| 20260507041009 | 14 | 17 | 0.0 | 0.0 | 0.00 | 0.00 | 0.00 | 89 | 1021.8 |
| 20260507040009 | 14 | 17 | 0.0 | 0.0 | 0.00 | 0.00 | 0.00 | 88 | 1021.7 |
| 20260507035009 | 15 | 17 | 0.0 | 0.0 | 0.00 | 0.00 | 0.00 | 86 | 1021.6 |
| 20260507033011 | 15 | 17 | 0.0 | 0.0 | 0.00 | 0.00 | 0.00 | 83 | 1021.5 |
| 20260507031010 | 16 | 17 | 0.0 | 0.0 | 0.00 | 0.00 | 0.00 | 77 | 1021.4 |
| 20260507025009 | 17 | 17 | 0.0 | 0.0 | 0.00 | 0.00 | 0.00 | 74 | 1021.3 |
| 20260507024010 | 17 | 17 | 0.0 | 0.0 | 0.00 | 0.00 | 0.00 | 72 | 1021.1 |